| time (UTC) | temp F | wind direction | speed knots | gust knots | rain 1hr in | rain 24hr in | rain mn in | humidity % | barometer mb |
| 20260505223104 | 74 | 77 | 1.7 | 2.6 | 0.00 | 0.00 | 0.00 | 80 | 1014.8 |
| 20260505222505 | 74 | 294 | 1.7 | 2.6 | 0.00 | 0.00 | 0.00 | 81 | 1014.8 |
| 20260505221905 | 73 | 279 | 0.9 | 2.6 | 0.00 | 0.00 | 0.00 | 84 | 1014.8 |
| 20260505221305 | 73 | 308 | 0.0 | 1.7 | 0.00 | 0.00 | 0.00 | 84 | 1014.8 |
| 20260505220704 | 71 | 294 | 0.9 | 1.7 | 0.00 | 0.00 | 0.00 | 88 | 1014.8 |
| 20260505215504 | 69 | 297 | 1.7 | 3.5 | 0.00 | 0.00 | 0.00 | 92 | 1014.9 |
| 20260505214905 | 68 | 285 | 1.7 | 1.7 | 0.00 | 0.00 | 0.00 | 93 | 1014.8 |
| 20260505214305 | 67 | 267 | 1.7 | 2.6 | 0.00 | 0.00 | 0.00 | 96 | 1014.8 |
| 20260505213705 | 66 | 268 | 1.7 | 2.6 | 0.00 | 0.00 | 0.00 | 98 | 1014.8 |
| 20260505212504 | 66 | 255 | 1.7 | 1.7 | 0.00 | 0.00 | 0.00 | 98 | 1014.5 |
| 20260505211905 | 66 | 275 | 1.7 | 2.6 | 0.00 | 0.00 | 0.00 | 98 | 1014.5 |
| 20260505211304 | 66 | 257 | 1.7 | 4.3 | 0.00 | 0.00 | 0.00 | 98 | 1014.5 |
| 20260505205505 | 66 | 238 | 1.7 | 4.3 | 0.00 | 0.00 | 0.00 | 98 | 1014.2 |
| 20260505204305 | 66 | 270 | 1.7 | 2.6 | 0.00 | 0.00 | 0.00 | 98 | 1014.0 |
| 20260505203704 | 66 | 267 | 1.7 | 2.6 | 0.00 | 0.00 | 0.00 | 98 | 1014.0 |
| 20260505203104 | 66 | 269 | 0.9 | 2.6 | 0.00 | 0.00 | 0.00 | 99 | 1014.0 |
| 20260505202505 | 65 | 262 | 0.9 | 2.6 | 0.00 | 0.00 | 0.00 | 98 | 1013.9 |
| 20260505201305 | 65 | 271 | 1.7 | 2.6 | 0.00 | 0.00 | 0.00 | 98 | 1013.8 |
| 20260505195505 | 65 | 262 | 1.7 | 1.7 | 0.00 | 0.00 | 0.00 | 99 | 1013.8 |
| 20260505194305 | 64 | 253 | 1.7 | 2.6 | 0.00 | 0.00 | 0.00 | 99 | 1013.7 |
| 20260505193705 | 63 | 255 | 1.7 | 2.6 | 0.00 | 0.00 | 0.00 | 99 | 1013.7 |
| 20260505192505 | 63 | 274 | 1.7 | 2.6 | 0.00 | 0.00 | 0.00 | 99 | 1013.4 |
| 20260505191904 | 63 | 258 | 1.7 | 2.6 | 0.00 | 0.00 | 0.00 | 99 | 1013.2 |
| 20260505191305 | 63 | 257 | 0.9 | 2.6 | 0.00 | 0.00 | 0.00 | 99 | 1013.2 |
| 20260505190705 | 63 | 259 | 1.7 | 2.6 | 0.00 | 0.00 | 0.00 | 99 | 1013.3 |
| 20260505190104 | 63 | 276 | 1.7 | 2.6 | 0.00 | 0.00 | 0.00 | 99 | 1013.2 |
| 20260505185504 | 63 | 265 | 0.9 | 2.6 | 0.00 | 0.00 | 0.00 | 99 | 1013.2 |
| 20260505184904 | 63 | 247 | 0.9 | 1.7 | 0.00 | 0.00 | 0.00 | 99 | 1013.2 |
| 20260505184305 | 63 | 250 | 0.9 | 1.7 | 0.00 | 0.00 | 0.00 | 99 | 1013.0 |
| 20260505183704 | 63 | 273 | 0.9 | 1.7 | 0.00 | 0.00 | 0.00 | 99 | 1013.0 |
| 20260505183105 | 63 | 271 | 0.9 | 2.6 | 0.00 | 0.00 | 0.00 | 99 | 1013.1 |
| 20260505182505 | 63 | 281 | 0.9 | 2.6 | 0.00 | 0.00 | 0.00 | 99 | 1013.1 |
| 20260505181305 | 63 | 253 | 1.7 | 2.6 | 0.00 | 0.00 | 0.00 | 99 | 1013.2 |
| 20260505180705 | 63 | 226 | 0.9 | 1.7 | 0.00 | 0.00 | 0.00 | 99 | 1013.3 |
| 20260505180105 | 63 | 171 | 0.9 | 1.7 | 0.00 | 0.00 | 0.00 | 99 | 1013.2 |
| 20260505175505 | 63 | 160 | 1.7 | 1.7 | 0.00 | 0.00 | 0.00 | 99 | 1013.0 |
| 20260505174905 | 63 | 168 | 1.7 | 2.6 | 0.00 | 0.00 | 0.00 | 99 | 1013.2 |
| 20260505173105 | 63 | 102 | 0.9 | 1.7 | 0.00 | 0.00 | 0.00 | 99 | 1013.2 |
| 20260505172505 | 63 | 94 | 0.9 | 1.7 | 0.00 | 0.00 | 0.00 | 99 | 1013.4 |
| 20260505171905 | 64 | 128 | 0.9 | 1.7 | 0.00 | 0.00 | 0.00 | 99 | 1013.5 |
| 20260505170105 | 64 | 147 | 1.7 | 2.6 | 0.00 | 0.00 | 0.00 | 99 | 1013.3 |
| 20260505165505 | 64 | 107 | 1.7 | 2.6 | 0.00 | 0.00 | 0.00 | 99 | 1013.2 |
| 20260505164905 | 64 | 240 | 0.9 | 1.7 | 0.00 | 0.00 | 0.00 | 99 | 1013.4 |
| 20260505163705 | 65 | 205 | 1.7 | 2.6 | 0.00 | 0.00 | 0.00 | 99 | 1013.5 |
| 20260505163105 | 65 | 248 | 0.9 | 2.6 | 0.00 | 0.00 | 0.00 | 99 | 1013.5 |
| 20260505162504 | 65 | 272 | 0.9 | 2.6 | 0.00 | 0.00 | 0.00 | 99 | 1013.5 |
| 20260505161905 | 65 | 190 | 1.7 | 3.5 | 0.00 | 0.00 | 0.00 | 99 | 1013.6 |
| 20260505161304 | 65 | 193 | 1.7 | 3.5 | 0.00 | 0.00 | 0.00 | 98 | 1013.7 |
| 20260505160705 | 65 | 192 | 1.7 | 2.6 | 0.00 | 0.00 | 0.00 | 98 | 1013.7 |
| 20260505160104 | 65 | 113 | 1.7 | 3.5 | 0.00 | 0.00 | 0.00 | 99 | 1013.8 |
| 20260505153104 | 67 | 254 | 1.7 | 2.6 | 0.00 | 0.00 | 0.00 | 96 | 1013.9 |
| 20260505152505 | 67 | 266 | 1.7 | 2.6 | 0.00 | 0.00 | 0.00 | 94 | 1014.0 |
| 20260505151905 | 68 | 257 | 0.9 | 2.6 | 0.00 | 0.00 | 0.00 | 93 | 1014.1 |
| 20260505151304 | 68 | 246 | 1.7 | 2.6 | 0.00 | 0.00 | 0.00 | 93 | 1014.2 |
| 20260505150705 | 68 | 245 | 1.7 | 2.6 | 0.00 | 0.00 | 0.00 | 92 | 1014.2 |
| 20260505150104 | 68 | 286 | 0.9 | 2.6 | 0.00 | 0.00 | 0.00 | 93 | 1014.2 |
| 20260505140104 | 68 | 280 | 1.7 | 2.6 | 0.00 | 0.00 | 0.00 | 90 | 1014.8 |
| 20260505130104 | 69 | 294 | 1.7 | 2.6 | 0.00 | 0.00 | 0.00 | 87 | 1015.2 |
| 20260505124905 | 69 | 296 | 1.7 | 2.6 | 0.00 | 0.00 | 0.00 | 87 | 1015.3 |
| 20260505124305 | 69 | 296 | 1.7 | 2.6 | 0.00 | 0.00 | 0.00 | 87 | 1015.4 |
| 20260505123705 | 69 | 280 | 0.9 | 1.7 | 0.00 | 0.00 | 0.00 | 87 | 1015.3 |
| 20260505123104 | 69 | 266 | 1.7 | 1.7 | 0.00 | 0.00 | 0.00 | 88 | 1015.5 |
| 20260505122504 | 69 | 275 | 1.7 | 2.6 | 0.00 | 0.00 | 0.00 | 88 | 1015.4 |
| 20260505121904 | 69 | 289 | 2.6 | 3.5 | 0.00 | 0.00 | 0.00 | 88 | 1015.5 |
| 20260505121304 | 69 | 289 | 1.7 | 3.5 | 0.00 | 0.00 | 0.00 | 88 | 1015.5 |
| 20260505114305 | 68 | 291 | 1.7 | 2.6 | 0.00 | 0.00 | 0.00 | 89 | 1015.5 |
| 20260505111904 | 68 | 285 | 13.0 | 14.8 | 0.00 | 0.00 | 0.00 | 90 | 1015.7 |
| 20260505111304 | 67 | 276 | 13.0 | 14.8 | 0.00 | 0.00 | 0.00 | 90 | 1015.7 |
| 20260505110704 | 67 | 269 | 13.0 | 14.8 | 0.00 | 0.00 | 0.00 | 92 | 1015.7 |
| 20260505110105 | 67 | 285 | 13.0 | 14.8 | 0.00 | 0.00 | 0.00 | 92 | 1015.8 |
| 20260505101905 | 66 | 278 | 13.9 | 15.6 | 0.00 | 0.00 | 0.00 | 93 | 1015.5 |
| 20260505101305 | 66 | 280 | 13.9 | 15.6 | 0.00 | 0.00 | 0.00 | 93 | 1015.5 |
| 20260505100705 | 66 | 262 | 13.9 | 15.6 | 0.00 | 0.00 | 0.00 | 93 | 1015.6 |
| 20260505100105 | 65 | 153 | 13.0 | 13.9 | 0.00 | 0.00 | 0.00 | 93 | 1015.4 |
| 20260505095504 | 65 | 125 | 13.0 | 13.9 | 0.00 | 0.00 | 0.00 | 93 | 1015.2 |
| 20260505093705 | 66 | 130 | 13.0 | 13.0 | 0.00 | 0.00 | 0.00 | 92 | 1015.0 |
| 20260505093105 | 66 | 130 | 13.0 | 13.9 | 0.00 | 0.00 | 0.00 | 89 | 1015.0 |
| 20260505092505 | 66 | 114 | 13.0 | 13.9 | 0.00 | 0.00 | 0.00 | 88 | 1014.8 |
| 20260505091904 | 68 | 103 | 12.2 | 13.0 | 0.00 | 0.00 | 0.00 | 85 | 1014.7 |
| 20260505091304 | 68 | 114 | 12.2 | 13.0 | 0.00 | 0.00 | 0.00 | 86 | 1014.7 |
| 20260505084904 | 69 | 109 | 11.3 | 13.0 | 0.00 | 0.00 | 0.00 | 84 | 1014.3 |
| 20260505084304 | 68 | 108 | 12.2 | 13.0 | 0.00 | 0.00 | 0.00 | 85 | 1014.2 |
| 20260505083705 | 69 | 102 | 12.2 | 13.0 | 0.00 | 0.00 | 0.00 | 84 | 1014.2 |
| 20260505083105 | 69 | 97 | 12.2 | 13.0 | 0.00 | 0.00 | 0.00 | 82 | 1014.1 |
| 20260505082505 | 70 | 94 | 12.2 | 13.0 | 0.00 | 0.00 | 0.00 | 81 | 1014.0 |
| 20260505081305 | 71 | 102 | 12.2 | 13.9 | 0.00 | 0.00 | 0.00 | 77 | 1013.9 |
| 20260505080705 | 71 | 99 | 11.3 | 13.0 | 0.00 | 0.00 | 0.00 | 77 | 1013.8 |
| 20260505080104 | 72 | 117 | 11.3 | 13.9 | 0.00 | 0.00 | 0.00 | 75 | 1013.8 |
| 20260505075505 | 73 | 115 | 11.3 | 13.9 | 0.00 | 0.00 | 0.00 | 73 | 1013.7 |
| 20260505074905 | 73 | 92 | 11.3 | 12.2 | 0.00 | 0.00 | 0.00 | 73 | 1013.5 |
| 20260505074304 | 74 | 107 | 11.3 | 12.2 | 0.00 | 0.00 | 0.00 | 72 | 1013.5 |
| 20260505072505 | 75 | 117 | 11.3 | 13.0 | 0.00 | 0.00 | 0.00 | 70 | 1013.2 |
| 20260505071305 | 75 | 108 | 11.3 | 13.0 | 0.00 | 0.00 | 0.00 | 69 | 1013.2 |
| 20260505065504 | 75 | 109 | 10.4 | 13.9 | 0.00 | 0.00 | 0.00 | 68 | 1013.0 |
| 20260505064904 | 76 | 103 | 10.4 | 13.0 | 0.00 | 0.00 | 0.00 | 68 | 1013.0 |
| 20260505064304 | 76 | 110 | 11.3 | 14.8 | 0.00 | 0.00 | 0.00 | 68 | 1012.9 |
| 20260505063704 | 77 | 100 | 11.3 | 15.6 | 0.00 | 0.00 | 0.00 | 66 | 1012.8 |
| 20260505062505 | 78 | 97 | 11.3 | 15.6 | 0.00 | 0.00 | 0.00 | 66 | 1012.8 |
| 20260505061905 | 79 | 99 | 11.3 | 16.5 | 0.00 | 0.00 | 0.00 | 65 | 1012.8 |
| 20260505060705 | 79 | 97 | 12.2 | 18.2 | 0.00 | 0.00 | 0.00 | 68 | 1012.7 |
| 20260505060104 | 80 | 105 | 11.3 | 16.5 | 0.00 | 0.00 | 0.00 | 66 | 1012.6 |
| 20260505055505 | 81 | 103 | 11.3 | 16.5 | 0.00 | 0.00 | 0.00 | 64 | 1012.6 |
| 20260505054905 | 82 | 102 | 12.2 | 14.8 | 0.00 | 0.00 | 0.00 | 62 | 1012.5 |
| 20260505054305 | 82 | 95 | 13.0 | 15.6 | 0.00 | 0.00 | 0.00 | 62 | 1012.5 |
| 20260505053705 | 83 | 80 | 13.0 | 15.6 | 0.00 | 0.00 | 0.00 | 61 | 1012.4 |
| 20260505053104 | 83 | 83 | 12.2 | 13.9 | 0.00 | 0.00 | 0.00 | 59 | 1012.4 |
| 20260505052505 | 83 | 84 | 12.2 | 14.8 | 0.00 | 0.00 | 0.00 | 54 | 1012.2 |
| 20260505051305 | 85 | 89 | 12.2 | 14.8 | 0.00 | 0.00 | 0.00 | 52 | 1012.2 |
| 20260505050704 | 85 | 101 | 12.2 | 14.8 | 0.00 | 0.00 | 0.00 | 50 | 1012.2 |
| 20260505050105 | 85 | 97 | 12.2 | 13.9 | 0.00 | 0.00 | 0.00 | 50 | 1012.1 |
| 20260505041305 | 85 | 91 | 13.9 | 18.2 | 0.00 | 0.00 | 0.00 | 49 | 1012.5 |
| 20260505040705 | 85 | 100 | 13.9 | 18.2 | 0.00 | 0.00 | 0.00 | 47 | 1012.4 |
| 20260505040104 | 86 | 101 | 14.8 | 18.2 | 0.00 | 0.00 | 0.00 | 45 | 1012.5 |
| 20260505035505 | 86 | 106 | 14.8 | 18.2 | 0.00 | 0.00 | 0.00 | 44 | 1012.6 |
| 20260505034905 | 86 | 105 | 13.9 | 17.4 | 0.00 | 0.00 | 0.00 | 44 | 1012.6 |
| 20260505034305 | 86 | 102 | 13.0 | 17.4 | 0.00 | 0.00 | 0.00 | 44 | 1012.8 |
| 20260505033705 | 85 | 104 | 12.2 | 17.4 | 0.00 | 0.00 | 0.00 | 45 | 1012.8 |
| 20260505033105 | 85 | 94 | 13.9 | 17.4 | 0.00 | 0.00 | 0.00 | 44 | 1012.8 |
| 20260505031905 | 84 | 136 | 13.0 | 15.6 | 0.00 | 0.00 | 0.00 | 45 | 1012.8 |
| 20260505031305 | 85 | 144 | 13.0 | 15.6 | 0.00 | 0.00 | 0.00 | 46 | 1012.9 |
| 20260505030705 | 85 | 99 | 10.4 | 15.6 | 0.00 | 0.00 | 0.00 | 48 | 1013.0 |
| 20260505030104 | 85 | 83 | 11.3 | 13.0 | 0.00 | 0.00 | 0.00 | 47 | 1012.9 |
| 20260505025505 | 85 | 122 | 12.2 | 14.8 | 0.00 | 0.00 | 0.00 | 49 | 1013.2 |
| 20260505023105 | 84 | 101 | 11.3 | 13.9 | 0.00 | 0.00 | 0.00 | 46 | 1013.8 |
| 20260505022505 | 84 | 94 | 11.3 | 15.6 | 0.00 | 0.00 | 0.00 | 49 | 1013.8 |
| 20260505021904 | 83 | 105 | 11.3 | 15.6 | 0.00 | 0.00 | 0.00 | 51 | 1013.8 |
| 20260505021304 | 83 | 100 | 11.3 | 13.9 | 0.00 | 0.00 | 0.00 | 52 | 1014.0 |
| 20260505020704 | 83 | 75 | 10.4 | 13.9 | 0.00 | 0.00 | 0.00 | 51 | 1014.2 |
| 20260505015505 | 83 | 87 | 12.2 | 15.6 | 0.00 | 0.00 | 0.00 | 52 | 1014.2 |
| 20260505014904 | 83 | 79 | 12.2 | 14.8 | 0.00 | 0.00 | 0.00 | 54 | 1014.1 |
| 20260505014304 | 82 | 120 | 12.2 | 14.8 | 0.00 | 0.00 | 0.00 | 54 | 1014.3 |
| 20260505013705 | 82 | 110 | 12.2 | 14.8 | 0.00 | 0.00 | 0.00 | 55 | 1014.5 |
| 20260505013105 | 81 | 116 | 11.3 | 14.8 | 0.00 | 0.00 | 0.00 | 56 | 1014.5 |
| 20260505012505 | 80 | 109 | 10.4 | 11.3 | 0.00 | 0.00 | 0.00 | 59 | 1014.7 |
| 20260505011305 | 81 | 91 | 12.2 | 14.8 | 0.00 | 0.00 | 0.00 | 58 | 1014.8 |
| 20260505010705 | 81 | 93 | 12.2 | 16.5 | 0.00 | 0.00 | 0.00 | 58 | 1014.8 |
| 20260505010104 | 80 | 98 | 12.2 | 16.5 | 0.00 | 0.00 | 0.00 | 61 | 1014.9 |
| 20260505005505 | 81 | 96 | 11.3 | 13.9 | 0.00 | 0.00 | 0.00 | 59 | 1014.9 |
| 20260505004905 | 81 | 98 | 12.2 | 14.8 | 0.00 | 0.00 | 0.00 | 59 | 1015.0 |
| 20260505004305 | 81 | 104 | 12.2 | 14.8 | 0.00 | 0.00 | 0.00 | 62 | 1015.2 |
| 20260505003704 | 80 | 100 | 13.0 | 14.8 | 0.00 | 0.00 | 0.00 | 63 | 1015.7 |
| 20260505003105 | 80 | 102 | 13.0 | 14.8 | 0.00 | 0.00 | 0.00 | 62 | 1015.5 |
| 20260505002504 | 80 | 98 | 12.2 | 14.8 | 0.00 | 0.00 | 0.00 | 65 | 1015.4 |
| 20260505001905 | 80 | 114 | 12.2 | 14.8 | 0.00 | 0.00 | 0.00 | 67 | 1015.5 |
| 20260505000105 | 78 | 101 | 11.3 | 13.0 | 0.00 | 0.00 | 0.00 | 68 | 1015.7 |
| 20260504235504 | 79 | 115 | 11.3 | 12.2 | 0.00 | 0.00 | 0.00 | 69 | 1015.8 |
| 20260504234904 | 79 | 79 | 11.3 | 14.8 | 0.00 | 0.00 | 0.00 | 69 | 1015.8 |
| 20260504233704 | 78 | 100 | 11.3 | 13.0 | 0.00 | 0.00 | 0.00 | 69 | 1015.8 |
| 20260504233105 | 78 | 65 | 12.2 | 14.8 | 0.00 | 0.00 | 0.00 | 70 | 1015.9 |
| 20260504232504 | 78 | 52 | 12.2 | 14.8 | 0.00 | 0.00 | 0.00 | 71 | 1015.8 |
| 20260504231905 | 78 | 358 | 11.3 | 13.9 | 0.00 | 0.00 | 0.00 | 73 | 1015.9 |
| 20260504231305 | 76 | 2 | 11.3 | 13.9 | 0.00 | 0.00 | 0.00 | 76 | 1015.8 |
| 20260504230705 | 75 | 329 | 10.4 | 13.9 | 0.00 | 0.00 | 0.00 | 77 | 1015.8 |
| 20260504230105 | 74 | 305 | 10.4 | 11.3 | 0.00 | 0.00 | 0.00 | 81 | 1015.8 |
| 20260504225505 | 74 | 305 | 10.4 | 12.2 | 0.00 | 0.00 | 0.00 | 82 | 1015.8 |
| 20260504224904 | 73 | 317 | 11.3 | 12.2 | 0.00 | 0.00 | 0.00 | 83 | 1015.8 |
| 20260504224304 | 73 | 299 | 11.3 | 12.2 | 0.00 | 0.00 | 0.00 | 83 | 1015.8 |